Shungnak AP, Shungnak, AK, AK

7:58 PM AKST on December 09, 2019 (GMT -0900)
Shungnak AP, Shungnak, AK

Weather History for PAGH - October, 2019

Change the Weather History Date:

Thursday, October 17, 2019

  Actual Average (WUND) Record (WUND)
Temperature  
Mean Temperature 29 °F -  
Max Temperature 34 °F - - (-1)
Min Temperature 24 °F - - (-1)
Degree Days  
Heating Degree Days 36    
Moisture  
Dew Point 17 °F    
Average Humidity 61    
Maximum Humidity 69    
Minimum Humidity 54    
Precipitation  
Precipitation 0.00 in - - ()
Sea Level Pressure  
Sea Level Pressure 29.36 in    
Wind  
Wind Speed 11 mph (East)    
Max Wind Speed 17 mph    
Max Gust Speed 22 mph    
Visibility 10 miles    
Events      
Averages and records for this station are not official NWS values.
T = Trace of Precipitation, MM = Missing Value Source: NWS Daily Summary

Daily Weather History Graph

Daily Weather History Graph

Search for Another Location

Airport or City:

Astronomy

Oct. 17, 2019 Rise Set
Actual Time 9:35 AM AKDT 6:51 PM AKDT
Civil Twilight 8:40 AM AKDT 7:46 PM AKDT
Nautical Twilight 7:38 AM AKDT 8:47 PM AKDT
Astronomical Twilight 6:36 AM AKDT 9:49 PM AKDT
Moon 7:39 PM AKDT (10/17) 3:05 PM AKDT (10/17)
Length of Visible Light 11h 05m
Length of Day
9h 15m
Waning Gibbous, 85% of the Moon is Illuminated
Oct 17
Waning Gibbous
Oct 21
Last Quarter
Oct 27
New
Nov 4
First Quarter
Nov 12
Full

Hourly Weather History & Observations

Time (AKDT) Temp. Windchill Dew Point Humidity Pressure Visibility Wind Dir Wind Speed Gust Speed Precip Events Conditions
12:56 AM 24.1 °F 11.0 °F 12.9 °F 62% 29.38 in 10.0 mi East 16.1 mph 21.9 mph N/A   Clear
1:56 AM 25.0 °F 14.2 °F 12.9 °F 60% 29.38 in 10.0 mi East 11.5 mph - N/A   Clear
2:56 AM 25.0 °F 14.2 °F 14.0 °F 63% 29.38 in 10.0 mi East 11.5 mph - N/A   Mostly Cloudy
3:56 AM 24.1 °F 15.2 °F 14.0 °F 65% 29.38 in 10.0 mi East 8.1 mph - N/A   Scattered Clouds
4:56 AM 26.1 °F 16.8 °F 15.1 °F 63% 29.38 in 10.0 mi East 9.2 mph - N/A   Overcast
5:56 AM 27.0 °F 17.3 °F 15.1 °F 61% 29.37 in 10.0 mi East 10.4 mph - N/A   Overcast
6:56 AM 24.1 °F 16.0 °F 15.1 °F 69% 29.36 in 10.0 mi East 6.9 mph - N/A   Overcast
7:56 AM 24.1 °F 17.0 °F 15.1 °F 69% 29.36 in 10.0 mi ENE 5.8 mph - N/A   Overcast
8:56 AM 26.1 °F 16.2 °F 15.1 °F 63% 29.35 in 10.0 mi East 10.4 mph - N/A   Overcast
9:56 AM 27.0 °F 19.5 °F 15.1 °F 61% 29.35 in 10.0 mi ENE 6.9 mph - N/A   Overcast
10:56 AM 28.0 °F 21.7 °F 16.0 °F 61% 29.37 in 8.0 mi ESE 5.8 mph - N/A   Overcast
11:56 AM 28.9 °F 23.9 °F 17.1 °F 61% 29.36 in 10.0 mi ESE 4.6 mph - N/A   Overcast
12:56 PM 30.9 °F 22.8 °F 18.0 °F 59% 29.36 in 10.0 mi East 9.2 mph - N/A   Overcast
1:56 PM 33.1 °F 23.9 °F 18.0 °F 54% 29.35 in 10.0 mi East 12.7 mph - N/A   Overcast
2:56 PM 33.1 °F 22.2 °F 19.0 °F 56% 29.35 in 10.0 mi East 17.3 mph - N/A   Overcast
3:56 PM 34.0 °F 23.8 °F 19.9 °F 56% 29.34 in 10.0 mi East 16.1 mph 21.9 mph N/A   Overcast
4:56 PM 34.0 °F 25.5 °F 19.9 °F 56% 29.35 in 10.0 mi East 11.5 mph - N/A   Overcast
5:56 PM 34.0 °F 25.0 °F 19.9 °F 56% 29.35 in 10.0 mi East 12.7 mph - N/A   Overcast
6:56 PM 33.1 °F 26.9 °F 21.0 °F 61% 29.35 in 10.0 mi East 6.9 mph - N/A   Overcast
7:56 PM 33.1 °F 26.9 °F 21.0 °F 61% 29.36 in 10.0 mi East 6.9 mph - N/A   Overcast
8:56 PM 33.1 °F 27.7 °F 21.0 °F 61% 29.37 in 10.0 mi East 5.8 mph - N/A   Overcast
9:56 PM 32.0 °F 25.6 °F 21.9 °F 66% 29.37 in 10.0 mi East 6.9 mph - N/A   Overcast
10:56 PM 33.1 °F 27.7 °F 21.0 °F 61% 29.38 in 10.0 mi Variable 5.8 mph - N/A   Overcast
11:56 PM 32.0 °F 28.7 °F 21.9 °F 66% 29.39 in 10.0 mi SSW 3.5 mph - N/A   Overcast